Location: Twentynine Palms Airport
(34.1316°N, 115.9458°W)
Time: 11:58:48
(UTC-08:00)

Amateur Radio Satellites - All Passes

Search period start: 01 March 2017 11:28
Search period end: 02 March 2017 11:28
Location: Twentynine Palms Airport, 34.1316°N, 115.9458°W

Satellite Date Start Highest point End Downlink Frequencies (MHz)
Time Altitude Azimuth
ESTCUBE 1 01 Mar 11:29:04 11:33:29 61° 285° (WNW) 11:37:53 437.505/2401.250
AIST 2D 01 Mar 11:31:34 11:32:42 11° 267° (W) 11:33:51 435.315
VELOX 1 01 Mar 11:34:14 11:38:28 43° 100° (E) 11:42:41 145.980
Oscar 19 01 Mar 11:38:58 11:43:15 27° 69° (ENE) 11:47:31 437.125/150
LO-87 01 Mar 11:39:57 11:42:05 15° 290° (WNW) 11:44:13 145.935 - 145.965
AO-85 01 Mar 11:46:18 11:50:09 53° 59° (ENE) 11:54:05 145.980
50 SAT 01 Mar 11:47:29 11:50:45 38° 99° (E) 11:54:00 437.505
DUCHIFAT 1 01 Mar 12:13:09 12:13:56 10° 268° (W) 12:14:43 145.980
ISS 01 Mar 12:40:38 12:43:49 46° 40° (NE) 12:46:59 437.550
SPROUT 01 Mar 12:43:27 12:47:18 32° 288° (WNW) 12:51:08 437.525
DX 1 01 Mar 12:46:22 12:50:41 63° 285° (WNW) 12:54:59 434.975-435.025
UKube-1 01 Mar 12:48:54 12:53:14 85° 285° (WNW) 12:57:33 .
BUGSAT 1 01 Mar 12:50:38 12:51:45 11° 268° (W) 12:52:53 437.445
Tancredo 1 01 Mar 12:54:20 12:57:33 72° 42° (NE) 13:00:44 437.200
Gurwin Techsat 1B 01 Mar 13:00:21 13:05:40 85° 257° (WSW) 13:11:00 435.225
VELOX 1 01 Mar 13:12:07 13:14:30 14° 293° (WNW) 13:16:54 145.980
Oscar 19 01 Mar 13:17:58 13:22:25 29° 263° (W) 13:26:53 437.125/150
BEESAT 3 01 Mar 13:23:12 13:26:54 35° 57° (ENE) 13:30:35 437.485
AO-7 01 Mar 13:25:10 13:32:28 35° 63° (ENE) 13:39:46 .
ITAMSAT 1 01 Mar 14:01:10 14:06:18 64° 74° (ENE) 14:11:27 435.822/435.867
BEESAT 2 01 Mar 14:11:52 14:15:48 49° 58° (ENE) 14:19:43 435.950
PCSat 01 Mar 14:13:02 14:18:17 54° 112° (ESE) 14:23:34 145.827
ISS 01 Mar 14:18:30 14:19:58 12° 234° (SW) 14:21:25 437.550
MOZHAYETS 4 01 Mar 14:26:17 14:29:52 22° 95° (E) 14:33:25
ITUPSAT 1 01 Mar 14:43:41 14:48:29 80° 283° (WNW) 14:53:15 437.325
RS-15 01 Mar 14:44:31 14:54:29 33° 104° (ESE) 15:04:45 29.354- 29.394
BEESAT 01 Mar 14:47:01 14:51:48 72° 285° (WNW) 14:56:31 436.000
NO-84 01 Mar 15:01:09 15:04:01 40° 316° (NW) 15:07:08 435.350 FM
BEESAT 3 01 Mar 15:01:50 15:04:10 15° 251° (WSW) 15:06:30 437.485
AO-7 01 Mar 15:16:58 15:24:54 47° 258° (WSW) 15:32:53 .
CUBESAT XI-V 01 Mar 15:38:40 15:42:05 20° 95° (E) 15:45:30 437.345
ITAMSAT 1 01 Mar 15:44:02 15:46:07 12° 268° (W) 15:48:12 435.822/435.867
CUTE-I 01 Mar 15:48:46 15:49:35 10° 61° (ENE) 15:50:25 437.470
BEESAT 2 01 Mar 15:52:05 15:53:05 11° 253° (WSW) 15:54:06 435.950
KKS-1 01 Mar 15:58:02 16:02:26 56° 101° (E) 16:06:50 437.445
PCSat 01 Mar 15:58:12 16:01:59 19° 308° (NW) 16:05:48 145.827
MOZHAYETS 4 01 Mar 16:03:03 16:06:58 28° 289° (WNW) 16:10:50
XW-2B 01 Mar 16:05:12 16:05:34 10° 67° (ENE) 16:05:56 145.730 - 145.750
XW-2C 01 Mar 16:12:27 16:14:20 13° 68° (ENE) 16:16:14 145.795 - 145.815
STARS 01 Mar 16:18:33 16:22:43 39° 99° (E) 16:26:52 437.465
LilacSat-2 01 Mar 16:33:05 16:36:18 25° 72° (ENE) 16:39:34 437.200
HO-68 01 Mar 16:41:38 16:43:30 11° 55° (NE) 16:45:22 435.675
M-CUBED/EXP-1 PRIME 01 Mar 16:42:58 16:46:27 27° 103° (ESE) 16:50:09 437.505
RS-15 01 Mar 16:54:19 17:06:05 65° 303° (WNW) 17:18:22 29.354- 29.394
DOVE 4 01 Mar 16:57:09 17:01:11 58° 76° (ENE) 17:05:20 437.250
KAITUO 1B 01 Mar 17:09:33 17:13:17 60° 76° (ENE) 17:17:03 145.475/437.950
CUBESAT XI-V 01 Mar 17:15:26 17:19:26 31° 289° (WNW) 17:23:27 437.345
XW-2F 01 Mar 17:22:32 17:26:21 72° 259° (W) 17:30:12 145.980 - 146.000
CUTE-I 01 Mar 17:23:30 17:28:50 86° 256° (WSW) 17:34:13 437.470
XW-2D 01 Mar 17:30:21 17:34:06 52° 260° (W) 17:37:53 145.860 - 145.880
XW-2A 01 Mar 17:34:41 17:36:59 17° 71° (ENE) 17:39:19 145.665 - 145.685
XW-2B 01 Mar 17:35:36 17:39:17 45° 261° (W) 17:43:01 145.730 - 145.750
KKS-1 01 Mar 17:36:53 17:38:28 12° 295° (WNW) 17:40:03 437.445
NUDT-PHONESAT 01 Mar 17:38:28 17:42:08 51° 260° (W) 17:45:51 437.300
XW-2C 01 Mar 17:44:41 17:48:11 34° 262° (W) 17:51:44 145.795 - 145.815
STARS 01 Mar 17:56:02 17:58:41 16° 293° (WNW) 18:01:20 437.465
SEEDS 01 Mar 17:56:16 17:58:58 17° 69° (ENE) 18:01:39 437.485
STRAND 1 01 Mar 18:02:35 18:05:52 17° 94° (E) 18:09:08 437.568
LilacSat-2 01 Mar 18:07:56 18:10:33 17° 265° (W) 18:13:10 437.200
CUBEBUG 2 01 Mar 18:17:27 18:20:49 21° 69° (ENE) 18:24:15 437.445
M-CUBED/EXP-1 PRIME 01 Mar 18:17:43 18:20:44 21° 293° (WNW) 18:23:55 437.505
HO-68 01 Mar 18:22:51 18:29:58 72° 72° (ENE) 18:37:06 435.675
CUTE 1.7 + AOD 2 01 Mar 18:42:18 18:46:34 83° 258° (WSW) 18:50:52 437.475
UWE-3 01 Mar 18:43:54 18:47:35 25° 70° (ENE) 18:51:21 435.000/436.395/437.385
ZACube-1 01 Mar 18:54:07 18:57:18 19° 69° (ENE) 19:00:32 437.345
JUGNU 01 Mar 18:59:39 19:03:23 17° 173° (S) 19:07:08 437.505
AAUSAT CUBESAT 2 01 Mar 19:04:31 19:08:32 51° 75° (ENE) 19:12:33 437.432
XW-2A 01 Mar 19:07:08 19:09:36 19° 264° (W) 19:12:06 145.665 - 145.685
RS-15 01 Mar 19:13:22 19:21:43 20° 330° (NNW) 19:30:14 29.354- 29.394
SEEDS 01 Mar 19:30:33 19:34:21 33° 262° (W) 19:38:11 437.485
AO-73 01 Mar 19:38:11 19:42:33 56° 75° (ENE) 19:47:01 145.935
Oscar 11 01 Mar 19:38:46 19:42:56 48° 74° (ENE) 19:47:08 .
STRAND 1 01 Mar 19:40:19 19:45:13 46° 288° (WNW) 19:50:06 437.568
CUBEBUG 2 01 Mar 19:53:16 19:57:11 30° 264° (W) 20:01:14 437.445
DELFI C3 01 Mar 19:53:39 19:56:26 19° 70° (ENE) 19:59:14 145.870
SRMSAT 01 Mar 20:09:59 20:12:12 12° 165° (SSE) 20:14:26 437.500
HO-68 01 Mar 20:13:46 20:18:10 17° 267° (W) 20:22:37 435.675
SO-50 01 Mar 20:14:00 20:18:40 72° 117° (ESE) 20:23:18 436.795
UWE-3 01 Mar 20:20:15 20:23:54 25° 265° (W) 20:27:40 435.000/436.395/437.385
YUBILEINY 01 Mar 20:25:30 20:34:04 57° 80° (E) 20:42:32 435.215
ZACube-1 01 Mar 20:29:16 20:33:17 33° 263° (W) 20:37:24 437.345
O/OREOS (USA 219) 01 Mar 20:46:05 20:50:19 43° 105° (ESE) 20:54:35 437.305
JUGNU 01 Mar 20:47:41 20:51:42 19° 183° (S) 20:55:44 437.505
PRISM 01 Mar 20:58:56 21:02:56 51° 101° (E) 21:06:55 437.425
TIGRISAT 01 Mar 21:05:56 21:09:41 24° 95° (E) 21:13:22 435.000
UNISAT 6 01 Mar 21:07:05 21:11:01 27° 96° (E) 21:14:52 437.425
Oscar 11 01 Mar 21:17:43 21:19:17 12° 268° (W) 21:20:50 .
AO-73 01 Mar 21:17:59 21:19:04 11° 269° (W) 21:20:11 145.935
DELFI C3 01 Mar 21:27:47 21:31:03 25° 263° (W) 21:34:19 145.870
RS-15 01 Mar 21:36:34 21:41:43 13° 8° (N) 21:46:49 29.354- 29.394
NO-84 01 Mar 21:37:40 21:40:58 24° 40° (NE) 21:44:26 435.350 FM
SRMSAT 01 Mar 21:56:35 22:00:39 19° 175° (S) 22:04:44 437.500
SO-50 01 Mar 21:57:31 21:59:36 13° 313° (NW) 22:01:40 436.795
LO-87 01 Mar 22:10:56 22:14:25 66° 259° (W) 22:17:57 145.935 - 145.965
FO-29 01 Mar 22:21:57 22:29:19 75° 102° (ESE) 22:35:48 435.910
YUBILEINY 01 Mar 22:23:27 22:30:11 26° 277° (W) 22:36:55 435.215
ESTCUBE 1 01 Mar 22:24:22 22:28:52 76° 77° (ENE) 22:33:22 437.505/2401.250
DUCHIFAT 1 01 Mar 22:24:26 22:25:14 10° 92° (E) 22:26:03 145.980
O/OREOS (USA 219) 01 Mar 22:27:22 22:29:55 15° 301° (WNW) 22:32:30 437.305
VELOX 1 01 Mar 22:28:15 22:31:46 24° 70° (ENE) 22:35:17 145.980
PRISM 01 Mar 22:36:56 22:37:43 10° 294° (WNW) 22:38:31 437.425
JUGNU 01 Mar 22:37:13 22:40:00 14° 193° (SSW) 22:42:48 437.505
EO-79 01 Mar 22:39:10 22:42:25 21° 95° (E) 22:45:38 145.935-145.965
TIGRISAT 01 Mar 22:42:20 22:46:16 27° 290° (WNW) 22:50:08 435.000
UNISAT 6 01 Mar 22:43:47 22:47:34 25° 290° (WNW) 22:51:17 437.425
NANOSAT C BR1 01 Mar 22:52:28 22:56:08 27° 97° (E) 22:59:45 145.865
AIST 2D 01 Mar 22:57:45 23:01:17 68° 101° (E) 23:04:47 435.315
POLYITAN 1 01 Mar 22:57:46 23:01:44 35° 98° (E) 23:05:37 437.675
QB50P2 01 Mar 23:00:52 23:04:57 42° 99° (E) 23:08:59 145.880/145.840
PCSat 01 Mar 23:05:20 23:09:25 21° 53° (NE) 23:13:28 145.827
NO-84 01 Mar 23:14:50 23:18:45 40° 233° (SW) 23:22:51 435.350 FM
SPROUT 01 Mar 23:32:18 23:36:32 71° 258° (WSW) 23:40:48 437.525
DX 1 01 Mar 23:37:48 23:42:04 67° 75° (ENE) 23:46:22 434.975-435.025
UKube-1 01 Mar 23:39:28 23:43:34 47° 74° (ENE) 23:47:42 .
SRMSAT 01 Mar 23:45:04 23:49:09 19° 185° (S) 23:53:16 437.500
RS-15 01 Mar 23:49:30 00:00:09 32° 42° (NE) 00:10:24 29.354- 29.394
50 SAT 01 Mar 23:50:27 23:53:45 40° 261° (W) 23:57:03 437.505
Oscar 19 01 Mar 23:55:54 23:57:51 12° 92° (E) 23:59:48 437.125/150
DUCHIFAT 1 01 Mar 23:57:01 00:01:09 50° 286° (WNW) 00:05:15 145.980
VELOX 1 02 Mar 00:04:33 00:08:06 24° 264° (W) 00:11:39 145.980
FO-29 02 Mar 00:08:41 00:13:20 18° 300° (WNW) 00:17:43 435.910
EO-79 02 Mar 00:14:31 00:18:06 26° 289° (WNW) 00:21:39 145.935-145.965
NANOSAT C BR1 02 Mar 00:28:30 00:31:38 20° 291° (WNW) 00:34:46 145.865
BUGSAT 1 02 Mar 00:32:33 00:36:45 60° 285° (WNW) 00:40:56 437.445
POLYITAN 1 02 Mar 00:34:31 00:37:11 16° 292° (WNW) 00:39:50 437.675
QB50P2 02 Mar 00:38:08 00:40:20 14° 293° (WNW) 00:42:31 145.880/145.840
PCSat 02 Mar 00:47:50 00:53:01 48° 249° (WSW) 00:58:12 145.827
UKube-1 02 Mar 01:18:21 01:19:48 11° 267° (W) 01:21:16 .
Gurwin Techsat 1B 02 Mar 01:20:27 01:25:39 52° 100° (E) 01:30:48 435.225
MOZHAYETS 4 02 Mar 01:25:28 01:28:04 15° 67° (ENE) 01:30:39
Oscar 19 02 Mar 01:32:27 01:37:31 63° 286° (WNW) 01:42:34 437.125/150
AO-7 02 Mar 01:34:58 01:36:47 11° 91° (E) 01:38:35 .
SRMSAT 02 Mar 01:35:15 01:37:37 12° 195° (SSW) 01:39:59 437.500
ITUPSAT 1 02 Mar 01:46:21 01:51:08 77° 76° (ENE) 01:55:58 437.325
BEESAT 02 Mar 01:49:19 01:54:06 85° 73° (ENE) 01:58:55 436.000
AO-85 02 Mar 01:56:41 02:01:10 46° 115° (ESE) 02:05:20 145.980
RS-15 02 Mar 02:01:39 02:13:52 77° 246° (WSW) 02:25:28 29.354- 29.394
ITAMSAT 1 02 Mar 02:18:12 02:22:47 30° 97° (E) 02:27:19 435.822/435.867
CUBESAT XI-V 02 Mar 02:39:26 02:41:49 14° 67° (ENE) 02:44:12 437.345
KKS-1 02 Mar 02:52:32 02:56:26 32° 71° (ENE) 03:00:21 437.445
MOZHAYETS 4 02 Mar 03:00:20 03:04:47 46° 261° (W) 03:09:15
Gurwin Techsat 1B 02 Mar 03:01:46 03:05:07 17° 295° (WNW) 03:08:27 435.225
BEESAT 3 02 Mar 03:11:10 03:13:13 14° 109° (ESE) 03:15:18 437.485
STARS 02 Mar 03:11:59 03:15:22 22° 69° (ENE) 03:18:46 437.465
AO-7 02 Mar 03:22:15 03:30:36 76° 106° (ESE) 03:38:51 .
M-CUBED/EXP-1 PRIME 02 Mar 03:27:33 03:29:17 14° 65° (ENE) 03:31:02 437.505
AO-85 02 Mar 03:38:54 03:41:42 16° 308° (NW) 03:44:24 145.980
Tancredo 1 02 Mar 03:54:52 03:56:17 12° 126° (SE) 03:57:43 437.200
ITAMSAT 1 02 Mar 03:57:44 04:02:05 27° 292° (WNW) 04:06:26 435.822/435.867
BEESAT 2 02 Mar 04:00:29 04:03:26 21° 110° (ESE) 04:06:26 435.950
CUBESAT XI-V 02 Mar 04:14:14 04:18:44 49° 260° (W) 04:23:14 437.345
RS-15 02 Mar 04:18:47 04:24:07 14° 264° (W) 04:29:23 29.354- 29.394
KKS-1 02 Mar 04:29:55 04:33:01 18° 265° (W) 04:36:06 437.445
BEESAT 3 02 Mar 04:46:51 04:50:27 36° 303° (WNW) 04:54:07 437.485
STARS 02 Mar 04:47:52 04:51:32 26° 263° (W) 04:55:13 437.465
SO-50 02 Mar 04:49:30 04:53:05 23° 52° (NE) 04:56:39 436.795
DOVE 4 02 Mar 04:59:06 05:03:09 24° 96° (E) 05:07:18 437.250
XW-2F 02 Mar 04:59:50 05:01:59 15° 94° (E) 05:04:07 145.980 - 146.000
M-CUBED/EXP-1 PRIME 02 Mar 05:01:00 05:03:35 22° 258° (WSW) 05:06:11 437.505
XW-2D 02 Mar 05:07:19 05:10:09 20° 95° (E) 05:12:56 145.860 - 145.880
XW-2B 02 Mar 05:12:21 05:15:22 22° 96° (E) 05:18:20 145.730 - 145.750
NUDT-PHONESAT 02 Mar 05:13:35 05:16:13 18° 95° (E) 05:18:49 437.300
STRAND 1 02 Mar 05:15:08 05:18:28 18° 66° (ENE) 05:21:49 437.568
AO-7 02 Mar 05:16:39 05:22:28 22° 303° (WNW) 05:28:16 .
ISS 02 Mar 05:17:38 05:20:54 67° 318° (NW) 05:24:12 437.550
XW-2C 02 Mar 05:20:57 05:24:19 29° 97° (E) 05:27:37 145.795 - 145.815
Tancredo 1 02 Mar 05:29:05 05:32:13 45° 321° (NW) 05:35:21 437.200
BEESAT 2 02 Mar 05:37:42 05:41:02 26° 305° (NW) 05:44:25 435.950
LilacSat-2 02 Mar 05:43:24 05:47:12 64° 100° (E) 05:50:58 437.200
CUTE-I 02 Mar 05:44:26 05:49:41 52° 101° (E) 05:54:54 437.470
HO-68 02 Mar 05:57:01 06:00:58 15° 92° (E) 06:04:55 435.675
KAITUO 1B 02 Mar 06:18:26 06:22:05 52° 285° (WNW) 06:25:42 145.475/437.950
SO-50 02 Mar 06:29:35 06:33:32 31° 248° (WSW) 06:37:28 436.795
CUTE 1.7 + AOD 2 02 Mar 06:31:37 06:34:50 21° 95° (E) 06:38:03 437.475
XW-2A 02 Mar 06:31:56 06:35:01 29° 98° (E) 06:38:03 145.665 - 145.685
XW-2F 02 Mar 06:32:53 06:36:08 28° 287° (WNW) 06:39:22 145.980 - 146.000
DOVE 4 02 Mar 06:36:24 06:40:44 32° 288° (WNW) 06:45:15 437.250
XW-2D 02 Mar 06:41:19 06:44:13 21° 289° (WNW) 06:47:06 145.860 - 145.880
XW-2B 02 Mar 06:46:40 06:49:23 19° 290° (WNW) 06:52:04 145.730 - 145.750
NUDT-PHONESAT 02 Mar 06:47:07 06:50:03 22° 289° (WNW) 06:52:57 437.300
STRAND 1 02 Mar 06:52:17 06:57:13 47° 260° (W) 07:02:12 437.568
AAUSAT CUBESAT 2 02 Mar 06:53:13 06:53:47 10° 92° (E) 06:54:21 437.432
XW-2C 02 Mar 06:56:04 06:58:13 15° 291° (WNW) 07:00:20 145.795 - 145.815
ISS 02 Mar 06:57:45 06:57:55 10° 335° (NNW) 06:58:05 437.550
O/OREOS (USA 219) 02 Mar 06:59:33 07:03:59 45° 67° (ENE) 07:08:23 437.305
SEEDS 02 Mar 07:17:33 07:21:36 50° 100° (E) 07:25:37 437.485
CUTE-I 02 Mar 07:25:49 07:29:14 17° 295° (WNW) 07:32:38 437.470
AO-73 02 Mar 07:31:33 07:33:59 14° 92° (E) 07:36:22 145.935
Oscar 11 02 Mar 07:31:53 07:33:21 11° 92° (E) 07:34:48 .
YUBILEINY 02 Mar 07:33:38 07:34:39 10° 76° (ENE) 07:35:40 435.215
HO-68 02 Mar 07:42:07 07:49:16 78° 287° (WNW) 07:56:24 435.675
PRISM 02 Mar 07:45:09 07:48:17 22° 70° (ENE) 07:51:25 437.425
CUBEBUG 2 02 Mar 07:47:03 07:51:48 77° 102° (ESE) 07:56:25 437.445
TIGRISAT 02 Mar 08:02:03 08:04:24 14° 66° (ENE) 08:06:47 435.000
UNISAT 6 02 Mar 08:03:07 08:05:50 16° 67° (ENE) 08:08:34 437.425
XW-2A 02 Mar 08:06:11 08:07:27 12° 291° (WNW) 08:08:42 145.665 - 145.685
CUTE 1.7 + AOD 2 02 Mar 08:07:10 08:10:35 24° 289° (WNW) 08:13:58 437.475
UWE-3 02 Mar 08:12:35 08:17:15 90° 268° (W) 08:21:45 435.000/436.395/437.385
ZACube-1 02 Mar 08:20:50 08:25:20 64° 101° (E) 08:29:40 437.345
AAUSAT CUBESAT 2 02 Mar 08:25:31 08:29:28 47° 285° (WNW) 08:33:24 437.432
FO-29 02 Mar 08:29:24 08:35:11 26° 63° (ENE) 08:41:14 435.910
O/OREOS (USA 219) 02 Mar 08:40:41 08:42:54 13° 261° (W) 08:45:08 437.305
SEEDS 02 Mar 08:55:44 08:56:47 11° 294° (WNW) 08:57:50 437.485
Oscar 11 02 Mar 09:05:32 09:09:41 47° 286° (WNW) 09:13:48 .
AO-73 02 Mar 09:06:10 09:10:22 40° 287° (WNW) 09:14:28 145.935
DELFI C3 02 Mar 09:07:44 09:11:34 49° 100° (E) 09:15:22 145.870
PRISM 02 Mar 09:20:12 09:23:26 23° 263° (W) 09:26:40 437.425
YUBILEINY 02 Mar 09:21:03 09:29:49 74° 93° (E) 09:38:34 435.215
AIST 2D 02 Mar 09:29:58 09:31:52 14° 70° (ENE) 09:33:46 435.315
HO-68 02 Mar 09:33:14 09:35:49 12° 304° (NW) 09:38:24 435.675
TIGRISAT 02 Mar 09:36:14 09:40:35 48° 261° (W) 09:45:04 435.000
UNISAT 6 02 Mar 09:37:49 09:42:06 42° 261° (W) 09:46:30 437.425
NANOSAT C BR1 02 Mar 09:42:23 09:44:22 13° 67° (ENE) 09:46:23 145.865
LO-87 02 Mar 09:43:17 09:44:49 12° 94° (E) 09:46:21 145.935 - 145.965
POLYITAN 1 02 Mar 09:47:33 09:50:19 17° 68° (ENE) 09:53:06 437.675
QB50P2 02 Mar 09:50:26 09:53:30 20° 69° (ENE) 09:56:36 145.880/145.840
ZACube-1 02 Mar 10:00:27 10:00:58 10° 295° (WNW) 10:01:27 437.345
FO-29 02 Mar 10:12:24 10:19:29 60° 260° (W) 10:27:12 435.910
ESTCUBE 1 02 Mar 10:21:20 10:24:42 21° 95° (E) 10:28:03 437.505/2401.250
AO-85 02 Mar 10:32:58 10:34:47 13° 50° (NE) 10:36:36 145.980
DUCHIFAT 1 02 Mar 10:44:31 10:48:40 68° 76° (ENE) 10:52:54 145.980
AIST 2D 02 Mar 11:01:47 11:04:49 26° 263° (W) 11:07:53 435.315
EO-79 02 Mar 11:02:12 11:06:22 58° 260° (W) 11:10:34 145.935-145.965
Oscar 19 02 Mar 11:09:22 11:11:46 13° 64° (ENE) 11:14:11 437.125/150
LO-87 02 Mar 11:15:07 11:18:19 30° 287° (WNW) 11:21:31 145.935 - 145.965
NANOSAT C BR1 02 Mar 11:15:40 11:19:40 43° 261° (W) 11:23:43 145.865
BUGSAT 1 02 Mar 11:18:12 11:22:08 53° 75° (ENE) 11:26:10 437.445
50 SAT 02 Mar 11:19:39 11:21:45 15° 95° (E) 11:23:52 437.505
